Terminal Aerodrome Forecast
Issued by NWS

Home | Current Version | Previous Version | Text Only | Print | Product List | Glossary On
Versions: 1 2 3 4 5 6 7 8 9 10 11 12 13 14 15 16 17 18 19 20 21 22 23 24 25 26
000
FTUS43 KDVN 061322 AAA
TAFCID
TAF AMD
KCID 061322Z 0613/0712 18008KT 4SM -SHRA BR VCTS BKN040CB
      TEMPO 0613/0615 1 1/2SM TSRA BR OVC025CB
     FM061800 20012KT P6SM VCTS BKN040CB
     FM062200 25010KT 4SM TSRA BR OVC025CB
     FM070100 28010KT 6SM BR OVC025 PROB30 0701/0705 3SM TSRA BR
      OVC020CB
     FM070500 34010KT P6SM SCT050=

USA.gov is the U.S. government's official web portal to all federal, state and local government web resources and services.